TimeEST,TemperatureF,Dew PointF,Humidity,Sea Level PressureIn,VisibilityMPH,Wind Direction,Wind SpeedMPH,Gust SpeedMPH,PrecipitationIn,Events,Conditions,WindDirDegrees,DateUTC
12:00 AM,23.0,19.9,88,30.30,-9999.0,Calm,Calm,-,N/A,,Clear,0,2012-12-07 05:00:00
1:00 AM,21.2,19.4,93,30.28,-9999.0,Calm,Calm,-,N/A,,Mostly Cloudy,0,2012-12-07 06:00:00
1:06 AM,23.0,21.0,92,30.28,-9999.0,Calm,Calm,-,N/A,,Mostly Cloudy,0,2012-12-07 06:06:00
2:00 AM,28.0,26.1,92,30.27,-9999.0,Calm,Calm,-,N/A,,Overcast,0,2012-12-07 07:00:00
3:00 AM,26.1,23.0,88,30.25,-9999.0,Calm,Calm,-,N/A,,Clear,0,2012-12-07 08:00:00
4:00 AM,23.0,21.0,92,30.23,-9999.0,Calm,Calm,-,N/A,,Clear,0,2012-12-07 09:00:00
5:00 AM,24.1,21.9,91,30.21,-9999.0,Calm,Calm,-,N/A,,Scattered Clouds,0,2012-12-07 10:00:00
6:00 AM,26.1,23.0,88,30.20,-9999.0,Calm,Calm,-,N/A,,Partly Cloudy,0,2012-12-07 11:00:00
7:00 AM,27.0,24.1,89,30.21,-9999.0,Calm,Calm,-,N/A,,Mostly Cloudy,0,2012-12-07 12:00:00
7:07 AM,-9999,-9999,N/A,-9999,-9999.0,North,-9999.0,-,N/A,,Unknown,0,2012-12-07 12:07:00
7:33 AM,28.4,26.6,93,30.21,-9999.0,Calm,Calm,-,N/A,,Overcast,0,2012-12-07 12:33:00
8:00 AM,30.9,28.0,89,30.21,-9999.0,Calm,Calm,-,N/A,,Overcast,0,2012-12-07 13:00:00
8:18 AM,32.0,28.4,87,30.20,-9999.0,Calm,Calm,-,N/A,,Overcast,0,2012-12-07 13:18:00
9:00 AM,37.0,30.9,79,30.20,-9999.0,Calm,Calm,-,N/A,,Overcast,0,2012-12-07 14:00:00
10:00 AM,39.9,34.0,79,30.19,-9999.0,Calm,Calm,-,N/A,,Overcast,0,2012-12-07 15:00:00
11:00 AM,39.9,36.0,86,30.18,-9999.0,Calm,Calm,-,0.00,Rain,Light Rain,0,2012-12-07 16:00:00
12:00 PM,43.0,41.0,93,30.15,-9999.0,SE,4.6,-,0.00,,Overcast,140,2012-12-07 17:00:00
1:00 PM,45.0,42.1,90,30.12,-9999.0,SE,4.6,-,N/A,,Overcast,140,2012-12-07 18:00:00
2:00 PM,45.0,44.1,97,30.10,-9999.0,Calm,Calm,-,0.00,Rain,Light Rain,0,2012-12-07 19:00:00
2:09 PM,44.6,44.6,100,30.10,-9999.0,Calm,Calm,-,0.00,,Overcast,0,2012-12-07 19:09:00
2:53 PM,46.4,44.6,93,30.09,-9999.0,SE,3.5,-,0.00,,Overcast,140,2012-12-07 19:53:00
3:00 PM,46.4,44.6,93,30.09,-9999.0,Calm,Calm,-,0.00,,Overcast,0,2012-12-07 20:00:00
3:06 PM,46.0,45.0,96,30.09,-9999.0,Calm,Calm,-,0.00,,Overcast,0,2012-12-07 20:06:00
3:22 PM,-9999,-9999,N/A,-9999,-9999.0,North,-9999.0,-,N/A,,Unknown,0,2012-12-07 20:22:00
3:36 PM,46.4,44.6,93,30.09,-9999.0,Calm,Calm,-,N/A,,Overcast,0,2012-12-07 20:36:00
3:43 PM,46.4,44.6,93,30.09,-9999.0,Calm,Calm,-,N/A,,Overcast,0,2012-12-07 20:43:00
4:00 PM,46.0,45.0,96,30.09,-9999.0,Calm,Calm,-,N/A,,Overcast,0,2012-12-07 21:00:00
4:14 PM,46.4,44.6,93,30.08,-9999.0,Calm,Calm,-,N/A,,Overcast,0,2012-12-07 21:14:00
5:00 PM,46.0,45.0,96,30.08,-9999.0,Calm,Calm,-,N/A,,Overcast,0,2012-12-07 22:00:00
6:00 PM,45.0,45.0,100,30.08,-9999.0,Calm,Calm,-,N/A,,Overcast,0,2012-12-07 23:00:00
7:22 PM,-9999,-9999,N/A,-9999,-9999.0,North,-9999.0,-,N/A,,Unknown,0,2012-12-08 00:22:00
7:30 PM,46.4,44.6,93,30.07,-9999.0,Calm,Calm,-,N/A,,Overcast,0,2012-12-08 00:30:00
8:41 PM,46.4,44.6,93,30.06,-9999.0,Calm,Calm,-,N/A,,Overcast,0,2012-12-08 01:41:00
9:00 PM,46.0,44.1,93,30.06,-9999.0,Calm,Calm,-,0.00,Rain,Light Rain,0,2012-12-08 02:00:00
10:00 PM,46.0,45.0,96,30.04,-9999.0,Calm,Calm,-,0.00,Rain,Light Rain,0,2012-12-08 03:00:00
10:39 PM,46.4,44.6,93,30.03,-9999.0,Calm,Calm,-,N/A,Rain,Rain,0,2012-12-08 03:39:00
10:58 PM,46.4,44.6,93,30.03,-9999.0,Calm,Calm,-,N/A,Rain,Rain,0,2012-12-08 03:58:00
11:00 PM,46.0,45.0,96,30.03,-9999.0,Calm,Calm,-,N/A,Rain,Rain,0,2012-12-08 04:00:00
11:15 PM,46.4,44.6,93,30.03,-9999.0,Calm,Calm,-,N/A,Rain,Light Rain,0,2012-12-08 04:15:00
11:34 PM,46.4,44.6,93,30.02,-9999.0,ENE,3.5,-,N/A,Rain,Light Rain,70,2012-12-08 04:34:00